Time,TemperatureF,DewpointF,PressureIn,WindDirection,WindDirectionDegrees,WindSpeedMPH,WindSpeedGustMPH,Humidity,HourlyPrecipIn,Conditions,Clouds,dailyrainin,SoftwareType,DateUTC
2013-01-15 00:03:00,0.5,-27.9,28.75,SSE,158,3.5,0.0,24,0.00,CLR,,0.00,WeatherDisplay:10.37,2013-01-15 06:03:00,
2013-01-15 00:08:00,0.5,-27.9,28.75,SSE,158,3.5,0.0,24,0.00,CLR,,0.00,WeatherDisplay:10.37,2013-01-15 06:08:00,
2013-01-15 00:13:00,0.5,-27.9,28.75,SSE,158,3.5,0.0,24,0.00,CLR,,0.00,WeatherDisplay:10.37,2013-01-15 06:13:00,
2013-01-15 00:18:00,0.5,-27.9,28.75,SSE,158,3.5,0.0,24,0.00,CLR,,0.00,WeatherDisplay:10.37,2013-01-15 06:18:00,
2013-01-15 00:23:00,0.5,-27.9,28.75,SSE,158,3.5,0.0,24,0.00,CLR,,0.00,WeatherDisplay:10.37,2013-01-15 06:23:00,
2013-01-15 00:28:00,0.5,-27.9,28.75,SSE,158,3.5,0.0,24,0.00,CLR,,0.00,WeatherDisplay:10.37,2013-01-15 06:28:00,
2013-01-15 00:33:00,0.5,-27.9,28.75,SSE,158,3.5,0.0,24,0.00,CLR,,0.00,WeatherDisplay:10.37,2013-01-15 06:33:00,
2013-01-15 00:38:00,0.5,-27.9,28.75,SSE,158,3.5,0.0,24,0.00,CLR,,0.00,WeatherDisplay:10.37,2013-01-15 06:38:00,
2013-01-15 00:43:00,0.5,-27.9,28.75,SSE,158,3.5,0.0,24,0.00,CLR,,0.00,WeatherDisplay:10.37,2013-01-15 06:43:00,
2013-01-15 00:48:00,0.5,-27.9,28.75,SSE,158,3.5,0.0,24,0.00,CLR,,0.00,WeatherDisplay:10.37,2013-01-15 06:48:00,
2013-01-15 00:53:00,0.5,-27.9,28.75,SSE,158,3.5,0.0,24,0.00,CLR,,0.00,WeatherDisplay:10.37,2013-01-15 06:53:00,
2013-01-15 00:58:00,0.5,-27.9,28.75,SSE,158,3.5,0.0,24,0.00,CLR,,0.00,WeatherDisplay:10.37,2013-01-15 06:58:00,
2013-01-15 01:03:00,0.5,-27.9,28.75,SSE,158,3.5,0.0,24,0.00,CLR,,0.00,WeatherDisplay:10.37,2013-01-15 07:03:00,
2013-01-15 01:08:00,0.5,-27.9,28.75,SSE,158,3.5,0.0,24,0.00,CLR,,0.00,WeatherDisplay:10.37,2013-01-15 07:08:00,
2013-01-15 01:13:00,0.5,-27.9,28.75,SSE,158,3.5,0.0,24,0.00,CLR,,0.00,WeatherDisplay:10.37,2013-01-15 07:13:00,
2013-01-15 01:18:00,0.5,-27.9,28.75,SSE,158,3.5,0.0,24,0.00,CLR,,0.00,WeatherDisplay:10.37,2013-01-15 07:18:00,
2013-01-15 01:23:00,0.5,-27.9,28.75,SSE,158,3.5,0.0,24,0.00,CLR,,0.00,WeatherDisplay:10.37,2013-01-15 07:23:00,
2013-01-15 01:28:00,0.5,-27.9,28.75,SSE,158,3.5,0.0,24,0.00,CLR,,0.00,WeatherDisplay:10.37,2013-01-15 07:28:00,
2013-01-15 01:33:00,0.5,-27.9,28.75,SSE,158,3.5,0.0,24,0.00,CLR,,0.00,WeatherDisplay:10.37,2013-01-15 07:33:00,
2013-01-15 01:38:00,0.5,-27.9,28.75,SSE,158,3.5,0.0,24,0.00,CLR,,0.00,WeatherDisplay:10.37,2013-01-15 07:38:00,
2013-01-15 01:43:00,0.5,-27.9,28.75,SSE,158,3.5,0.0,24,0.00,CLR,,0.00,WeatherDisplay:10.37,2013-01-15 07:43:00,
2013-01-15 01:48:00,0.5,-27.9,28.75,SSE,158,3.5,0.0,24,0.00,CLR,,0.00,WeatherDisplay:10.37,2013-01-15 07:48:00,
2013-01-15 01:53:00,0.5,-27.9,28.75,SSE,158,3.5,0.0,24,0.00,CLR,,0.00,WeatherDisplay:10.37,2013-01-15 07:53:00,
2013-01-15 01:58:00,0.5,-27.9,28.75,SSE,158,3.5,0.0,24,0.00,CLR,,0.00,WeatherDisplay:10.37,2013-01-15 07:58:00,
2013-01-15 02:03:00,0.5,-27.9,28.75,SSE,158,3.5,0.0,24,0.00,CLR,,0.00,WeatherDisplay:10.37,2013-01-15 08:03:00,
2013-01-15 02:08:00,0.5,-27.9,28.75,SSE,158,3.5,0.0,24,0.00,CLR,,0.00,WeatherDisplay:10.37,2013-01-15 08:08:00,
2013-01-15 02:13:00,0.5,-27.9,28.75,SSE,158,3.5,0.0,24,0.00,CLR,,0.00,WeatherDisplay:10.37,2013-01-15 08:13:00,
2013-01-15 02:18:00,0.5,-27.9,28.75,SSE,158,3.5,0.0,24,0.00,CLR,,0.00,WeatherDisplay:10.37,2013-01-15 08:18:00,
2013-01-15 02:23:00,0.5,-27.9,28.75,SSE,158,3.5,0.0,24,0.00,CLR,,0.00,WeatherDisplay:10.37,2013-01-15 08:23:00,
2013-01-15 02:28:00,0.5,-27.9,28.75,SSE,158,3.5,0.0,24,0.00,CLR,,0.00,WeatherDisplay:10.37,2013-01-15 08:28:00,
2013-01-15 02:33:00,0.5,-27.9,28.75,SSE,158,3.5,0.0,24,0.00,CLR,,0.00,WeatherDisplay:10.37,2013-01-15 08:33:00,
2013-01-15 02:38:00,0.5,-27.9,28.75,SSE,158,3.5,0.0,24,0.00,CLR,,0.00,WeatherDisplay:10.37,2013-01-15 08:38:00,
2013-01-15 02:43:00,0.5,-27.9,28.75,SSE,158,3.5,0.0,24,0.00,CLR,,0.00,WeatherDisplay:10.37,2013-01-15 08:43:00,
2013-01-15 02:48:00,0.5,-27.9,28.75,SSE,158,3.5,0.0,24,0.00,CLR,,0.00,WeatherDisplay:10.37,2013-01-15 08:48:00,
2013-01-15 02:53:00,0.5,-27.9,28.75,SSE,158,3.5,0.0,24,0.00,CLR,,0.00,WeatherDisplay:10.37,2013-01-15 08:53:00,
2013-01-15 02:58:00,0.5,-27.9,28.75,SSE,158,3.5,0.0,24,0.00,CLR,,0.00,WeatherDisplay:10.37,2013-01-15 08:58:00,
2013-01-15 03:03:00,0.5,-27.9,28.75,SSE,158,3.5,0.0,24,0.00,CLR,,0.00,WeatherDisplay:10.37,2013-01-15 09:03:00,
2013-01-15 03:08:00,0.5,-27.9,28.75,SSE,158,3.5,0.0,24,0.00,CLR,,0.00,WeatherDisplay:10.37,2013-01-15 09:08:00,
2013-01-15 03:13:00,2.5,-0.5,31.75,SW,225,2.3,0.0,87,0.00,CLR,,0.00,WeatherDisplay:10.37,2013-01-15 09:13:00,
2013-01-15 03:18:00,2.7,-0.3,31.55,SW,225,1.1,1.1,87,0.00,CLR,,0.00,WeatherDisplay:10.37,2013-01-15 09:18:00,
2013-01-15 03:23:00,2.5,-0.5,31.58,SW,225,1.1,1.1,87,0.00,CLR,,0.00,WeatherDisplay:10.37,2013-01-15 09:23:00,
2013-01-15 03:28:00,2.7,-0.3,31.71,South,180,1.1,1.1,87,0.00,CLR,,0.00,WeatherDisplay:10.37,2013-01-15 09:28:00,
2013-01-15 03:33:00,2.7,-0.3,31.81,SW,225,1.1,1.1,87,0.00,CLR,,0.00,WeatherDisplay:10.37,2013-01-15 09:33:00,
2013-01-15 03:38:00,2.7,-0.3,31.81,SW,225,1.1,1.1,87,0.00,CLR,,0.00,WeatherDisplay:10.37,2013-01-15 09:38:00,
2013-01-15 03:43:00,2.7,-0.3,31.81,SW,225,1.1,1.1,87,0.00,CLR,,0.00,WeatherDisplay:10.37,2013-01-15 09:43:00,
2013-01-15 03:48:00,2.7,-0.3,31.81,SW,225,1.1,1.1,87,0.00,CLR,,0.00,WeatherDisplay:10.37,2013-01-15 09:48:00,
2013-01-15 03:53:00,2.7,-0.3,31.81,SW,225,1.1,1.1,87,0.00,CLR,,0.00,WeatherDisplay:10.37,2013-01-15 09:53:00,
2013-01-15 03:58:00,2.7,-0.3,31.81,SW,225,1.1,1.1,87,0.00,CLR,,0.00,WeatherDisplay:10.37,2013-01-15 09:58:00,
2013-01-15 04:03:00,2.7,-0.3,31.81,SW,225,1.1,1.1,87,0.00,CLR,,0.00,WeatherDisplay:10.37,2013-01-15 10:03:00,
2013-01-15 04:08:00,2.7,-0.3,31.81,SW,225,1.1,1.1,87,0.00,CLR,,0.00,WeatherDisplay:10.37,2013-01-15 10:08:00,
2013-01-15 04:13:00,1.8,-1.2,31.78,NW,315,1.1,1.1,87,0.00,CLR,,0.00,WeatherDisplay:10.37,2013-01-15 10:13:00,
2013-01-15 04:18:00,1.6,-1.6,31.35,South,180,1.1,0.0,86,0.00,CLR,,0.00,WeatherDisplay:10.37,2013-01-15 10:18:00,
2013-01-15 04:23:00,1.6,-1.6,31.17,South,180,3.5,3.5,86,0.00,CLR,,0.00,WeatherDisplay:10.37,2013-01-15 10:23:00,
2013-01-15 04:28:00,1.8,-1.2,31.27,South,180,3.5,3.5,87,0.00,CLR,,0.00,WeatherDisplay:10.37,2013-01-15 10:28:00,
2013-01-15 04:33:00,1.9,-1.0,31.41,SW,225,1.1,0.0,87,0.00,CLR,,0.00,WeatherDisplay:10.37,2013-01-15 10:33:00,
2013-01-15 04:38:00,1.8,-1.2,31.68,South,180,1.1,1.1,87,0.00,CLR,,0.00,WeatherDisplay:10.37,2013-01-15 10:38:00,
2013-01-15 04:43:00,1.9,-1.0,31.87,South,180,3.5,3.5,87,0.00,CLR,,0.00,WeatherDisplay:10.37,2013-01-15 10:43:00,
2013-01-15 04:48:00,1.9,-1.0,31.87,South,180,3.5,3.5,87,0.00,CLR,,0.00,WeatherDisplay:10.37,2013-01-15 10:48:00,
2013-01-15 04:53:00,1.9,-1.0,31.87,South,180,3.5,3.5,87,0.00,CLR,,0.00,WeatherDisplay:10.37,2013-01-15 10:53:00,
2013-01-15 04:58:00,1.9,-1.0,31.87,South,180,3.5,3.5,87,0.00,CLR,,0.00,WeatherDisplay:10.37,2013-01-15 10:58:00,
2013-01-15 05:03:00,1.9,-1.0,31.87,South,180,3.5,3.5,87,0.00,CLR,,0.00,WeatherDisplay:10.37,2013-01-15 11:03:00,
2013-01-15 05:08:00,1.9,-1.0,31.87,South,180,3.5,3.5,87,0.00,CLR,,0.00,WeatherDisplay:10.37,2013-01-15 11:08:00,
2013-01-15 05:13:00,1.6,-1.6,31.86,SW,225,3.5,0.0,86,0.00,CLR,,0.00,WeatherDisplay:10.37,2013-01-15 11:13:00,
2013-01-15 05:18:00,1.6,-1.6,31.32,North,0,1.1,1.1,86,0.00,CLR,,0.00,WeatherDisplay:10.37,2013-01-15 11:18:00,
2013-01-15 05:23:00,1.4,-1.8,31.10,North,0,0.0,0.0,86,0.00,CLR,,0.00,WeatherDisplay:10.37,2013-01-15 11:23:00,
2013-01-15 05:28:00,1.4,-1.8,30.98,South,180,2.3,2.3,86,0.00,CLR,,0.00,WeatherDisplay:10.37,2013-01-15 11:28:00,
2013-01-15 05:33:00,1.9,-1.0,31.07,South,180,2.3,2.3,87,0.00,CLR,,0.00,WeatherDisplay:10.37,2013-01-15 11:33:00,
2013-01-15 05:38:00,2.5,-0.3,31.31,South,180,2.3,2.3,88,0.00,CLR,,0.00,WeatherDisplay:10.37,2013-01-15 11:38:00,
2013-01-15 05:43:00,2.3,-0.7,31.62,South,180,2.3,2.3,87,0.00,CLR,,0.00,WeatherDisplay:10.37,2013-01-15 11:43:00,
2013-01-15 05:48:00,2.1,-0.9,31.85,North,0,1.1,1.1,87,0.00,CLR,,0.00,WeatherDisplay:10.37,2013-01-15 11:48:00,
2013-01-15 05:53:00,2.1,-0.9,31.85,North,0,1.1,1.1,87,0.00,CLR,,0.00,WeatherDisplay:10.37,2013-01-15 11:53:00,
2013-01-15 05:58:00,2.1,-0.9,31.85,North,0,1.1,1.1,87,0.00,CLR,,0.00,WeatherDisplay:10.37,2013-01-15 11:58:00,
2013-01-15 06:03:00,2.1,-0.9,31.85,North,0,1.1,1.1,87,0.00,CLR,,0.00,WeatherDisplay:10.37,2013-01-15 12:03:00,
2013-01-15 06:08:00,2.1,-0.9,31.85,North,0,1.1,1.1,87,0.00,CLR,,0.00,WeatherDisplay:10.37,2013-01-15 12:08:00,
2013-01-15 06:13:00,1.2,-2.0,31.88,SW,225,1.1,0.0,86,0.00,CLR,,0.00,WeatherDisplay:10.37,2013-01-15 12:13:00,
2013-01-15 06:18:00,1.0,-2.2,31.21,South,180,1.1,0.0,86,0.00,CLR,,0.00,WeatherDisplay:10.37,2013-01-15 12:18:00,
2013-01-15 06:23:00,1.0,-2.2,30.92,South,180,1.1,1.1,86,0.00,CLR,,0.00,WeatherDisplay:10.37,2013-01-15 12:23:00,
2013-01-15 06:28:00,0.9,-2.3,30.81,SW,225,1.1,0.0,86,0.00,CLR,,0.00,WeatherDisplay:10.37,2013-01-15 12:28:00,
2013-01-15 06:33:00,1.0,-2.2,30.80,SW,225,1.1,0.0,86,0.00,CLR,,0.00,WeatherDisplay:10.37,2013-01-15 12:33:00,
2013-01-15 06:38:00,1.0,-2.2,31.05,SW,225,1.1,0.0,86,0.00,CLR,,0.00,WeatherDisplay:10.37,2013-01-15 12:38:00,
2013-01-15 06:43:00,1.0,-2.2,31.28,NW,315,1.1,0.0,86,0.00,CLR,,0.00,WeatherDisplay:10.37,2013-01-15 12:43:00,
2013-01-15 06:48:00,1.0,-2.2,31.62,NW,315,1.1,0.0,86,0.00,CLR,,0.00,WeatherDisplay:10.37,2013-01-15 12:48:00,
2013-01-15 06:53:00,0.9,-2.3,31.57,NW,315,0.0,0.0,86,0.00,CLR,,0.00,WeatherDisplay:10.37,2013-01-15 12:53:00,
2013-01-15 06:58:00,0.7,-2.5,31.18,NW,315,0.0,0.0,86,0.00,CLR,,0.00,WeatherDisplay:10.37,2013-01-15 12:58:00,
2013-01-15 07:03:00,0.5,-2.7,30.73,NW,315,0.0,0.0,86,0.00,CLR,,0.00,WeatherDisplay:10.37,2013-01-15 13:03:00,
2013-01-15 07:08:00,0.5,-2.7,30.33,NW,315,0.0,0.0,86,0.00,CLR,,0.00,WeatherDisplay:10.37,2013-01-15 13:08:00,
2013-01-15 07:13:00,0.7,-2.5,29.50,NW,315,1.1,0.0,86,0.00,CLR,,0.00,WeatherDisplay:10.37,2013-01-15 13:13:00,
2013-01-15 07:18:00,0.7,-2.5,28.93,NW,315,1.1,0.0,86,0.00,CLR,,0.00,WeatherDisplay:10.37,2013-01-15 13:18:00,
2013-01-15 07:23:00,0.7,-2.5,28.26,NW,315,0.0,0.0,86,0.00,CLR,,0.00,WeatherDisplay:10.37,2013-01-15 13:23:00,
2013-01-15 07:28:00,0.7,-2.5,27.45,NW,315,1.1,0.0,86,0.00,CLR,,0.00,WeatherDisplay:10.37,2013-01-15 13:28:00,
2013-01-15 07:33:00,1.2,-2.0,26.86,NW,315,1.1,0.0,86,0.00,CLR,,0.00,WeatherDisplay:10.37,2013-01-15 13:33:00,
2013-01-15 07:38:00,1.0,-2.2,26.10,South,180,1.1,1.1,86,0.00,CLR,,0.00,WeatherDisplay:10.37,2013-01-15 13:38:00,
2013-01-15 07:43:00,1.2,-2.0,25.53,South,180,3.5,3.5,86,0.00,CLR,,0.00,WeatherDisplay:10.37,2013-01-15 13:43:00,
2013-01-15 07:48:00,1.4,-1.8,25.17,SW,225,1.1,1.1,86,0.00,CLR,,0.00,WeatherDisplay:10.37,2013-01-15 13:48:00,
2013-01-15 07:53:00,2.3,-0.7,25.18,SW,225,1.1,0.0,87,0.00,CLR,,0.00,WeatherDisplay:10.37,2013-01-15 13:53:00,
2013-01-15 07:58:00,2.5,-0.5,25.48,North,0,2.3,2.3,87,0.00,CLR,,0.00,WeatherDisplay:10.37,2013-01-15 13:58:00,
2013-01-15 08:03:00,2.5,-0.5,25.78,North,0,1.1,0.0,87,0.00,CLR,,0.00,WeatherDisplay:10.37,2013-01-15 14:03:00,
2013-01-15 08:08:00,2.7,-0.6,26.19,NW,315,1.1,0.0,86,0.00,CLR,,0.00,WeatherDisplay:10.37,2013-01-15 14:08:00,
2013-01-15 08:13:00,2.7,-0.6,26.59,South,180,2.3,2.3,86,0.00,CLR,,0.00,WeatherDisplay:10.37,2013-01-15 14:13:00,
2013-01-15 08:18:00,2.7,-0.6,26.72,South,180,3.5,3.5,86,0.00,CLR,,0.00,WeatherDisplay:10.37,2013-01-15 14:18:00,
2013-01-15 08:23:00,3.2,0.2,26.52,South,180,2.3,2.3,87,0.00,CLR,,0.00,WeatherDisplay:10.37,2013-01-15 14:23:00,
2013-01-15 08:28:00,4.3,1.0,26.15,SE,135,3.5,3.5,86,0.00,CLR,,0.00,WeatherDisplay:10.37,2013-01-15 14:28:00,
2013-01-15 08:33:00,5.5,2.3,25.74,South,180,3.5,3.5,86,0.00,CLR,,0.00,WeatherDisplay:10.37,2013-01-15 14:33:00,
2013-01-15 08:38:00,7.5,4.5,25.29,North,0,1.1,0.0,87,0.00,CLR,,0.00,WeatherDisplay:10.37,2013-01-15 14:38:00,
2013-01-15 08:43:00,9.1,5.8,25.29,North,0,1.1,1.1,86,0.00,CLR,,0.00,WeatherDisplay:10.37,2013-01-15 14:43:00,
2013-01-15 08:48:00,10.9,7.6,25.31,North,0,8.1,0.0,86,0.00,CLR,,0.00,WeatherDisplay:10.37,2013-01-15 14:48:00,
2013-01-15 08:53:00,12.9,9.5,25.66,North,0,1.1,1.1,86,0.00,CLR,,0.00,WeatherDisplay:10.37,2013-01-15 14:53:00,
2013-01-15 08:58:00,15.8,12.6,26.10,North,0,0.0,0.0,87,0.00,CLR,,0.00,WeatherDisplay:10.37,2013-01-15 14:58:00,
2013-01-15 09:03:00,18.0,15.0,26.51,North,0,1.1,0.0,88,0.00,CLR,,0.00,WeatherDisplay:10.37,2013-01-15 15:03:00,
2013-01-15 09:08:00,19.4,15.9,26.93,North,0,1.1,0.0,86,0.00,CLR,,0.00,WeatherDisplay:10.37,2013-01-15 15:08:00,
2013-01-15 09:13:00,20.7,16.3,27.31,North,0,1.1,0.0,83,0.00,CLR,,0.00,WeatherDisplay:10.37,2013-01-15 15:13:00,
2013-01-15 09:18:00,21.0,16.4,27.31,NW,315,1.1,0.0,82,0.00,CLR,,0.00,WeatherDisplay:10.37,2013-01-15 15:18:00,
2013-01-15 09:23:00,22.3,15.9,27.05,North,0,1.1,1.1,76,0.00,CLR,,0.00,WeatherDisplay:10.37,2013-01-15 15:23:00,
2013-01-15 09:28:00,23.2,16.7,26.66,West,270,0.0,0.0,76,0.00,CLR,,0.00,WeatherDisplay:10.37,2013-01-15 15:28:00,
2013-01-15 09:33:00,23.4,17.2,26.08,West,270,1.1,0.0,77,0.00,CLR,,0.00,WeatherDisplay:10.37,2013-01-15 15:33:00,
2013-01-15 09:38:00,23.5,14.5,25.79,SE,135,3.5,3.5,68,0.00,CLR,,0.00,WeatherDisplay:10.37,2013-01-15 15:38:00,
2013-01-15 09:43:00,19.9,11.4,25.78,SE,135,4.6,4.6,69,0.00,CLR,,0.00,WeatherDisplay:10.37,2013-01-15 15:43:00,
2013-01-15 09:48:00,19.2,11.4,25.94,SE,135,3.5,3.5,71,0.00,CLR,,0.00,WeatherDisplay:10.37,2013-01-15 15:48:00,
2013-01-15 09:53:00,19.6,11.7,26.25,SE,135,2.3,2.3,71,0.00,CLR,,0.00,WeatherDisplay:10.37,2013-01-15 15:53:00,
2013-01-15 09:58:00,19.6,12.0,26.58,SE,135,3.5,3.5,72,0.00,CLR,,0.00,WeatherDisplay:10.37,2013-01-15 15:58:00,
2013-01-15 10:03:00,20.3,12.7,26.96,SW,225,3.5,3.5,72,0.00,CLR,,0.00,WeatherDisplay:10.37,2013-01-15 16:03:00,
2013-01-15 10:08:00,21.2,13.3,27.30,South,180,2.3,2.3,71,0.00,CLR,,0.00,WeatherDisplay:10.37,2013-01-15 16:08:00,
2013-01-15 10:13:00,22.6,14.0,27.70,SW,225,3.5,3.5,69,0.00,CLR,,0.00,WeatherDisplay:10.37,2013-01-15 16:13:00,
2013-01-15 10:18:00,22.6,14.0,28.02,SW,225,2.3,2.3,69,0.00,CLR,,0.00,WeatherDisplay:10.37,2013-01-15 16:18:00,
2013-01-15 10:23:00,23.5,13.8,28.05,South,180,3.5,3.5,66,0.00,CLR,,0.00,WeatherDisplay:10.37,2013-01-15 16:23:00,
2013-01-15 10:28:00,23.9,14.2,27.82,South,180,3.5,3.5,66,0.00,CLR,,0.00,WeatherDisplay:10.37,2013-01-15 16:28:00,
2013-01-15 10:33:00,24.4,14.7,27.20,SSE,158,1.1,1.1,66,0.00,CLR,,0.00,WeatherDisplay:10.37,2013-01-15 16:33:00,
2013-01-15 10:38:00,23.7,14.0,26.70,South,180,1.1,2.2,66,0.00,CLR,,0.00,WeatherDisplay:10.37,2013-01-15 16:38:00,
2013-01-15 10:43:00,24.3,14.5,26.43,SW,225,3.5,3.5,66,0.00,CLR,,0.00,WeatherDisplay:10.37,2013-01-15 16:43:00,
2013-01-15 10:48:00,24.4,14.4,26.39,West,270,3.5,0.0,65,0.00,CLR,,0.00,WeatherDisplay:10.37,2013-01-15 16:48:00,
2013-01-15 10:53:00,24.6,14.2,26.47,SW,225,4.6,4.6,64,0.00,CLR,,0.00,WeatherDisplay:10.37,2013-01-15 16:53:00,
2013-01-15 10:58:00,24.3,13.8,26.62,North,0,4.6,4.6,64,0.00,CLR,,0.00,WeatherDisplay:10.37,2013-01-15 16:58:00,
2013-01-15 11:03:00,24.3,13.8,26.92,South,180,3.5,3.5,64,0.00,CLR,,0.00,WeatherDisplay:10.37,2013-01-15 17:03:00,
2013-01-15 11:08:00,24.1,13.7,27.19,South,180,4.6,4.6,64,0.00,CLR,,0.00,WeatherDisplay:10.37,2013-01-15 17:08:00,
2013-01-15 11:13:00,23.0,13.3,27.42,SW,225,5.8,5.8,66,0.00,CLR,,0.00,WeatherDisplay:10.37,2013-01-15 17:13:00,
2013-01-15 11:18:00,22.3,13.0,27.71,South,180,3.5,3.5,67,0.00,CLR,,0.00,WeatherDisplay:10.37,2013-01-15 17:18:00,
2013-01-15 11:23:00,22.3,13.3,28.04,South,180,3.5,3.5,68,0.00,CLR,,0.00,WeatherDisplay:10.37,2013-01-15 17:23:00,
2013-01-15 11:28:00,22.1,13.5,28.34,SW,225,3.5,3.5,69,0.00,CLR,,0.00,WeatherDisplay:10.37,2013-01-15 17:28:00,
2013-01-15 11:33:00,22.1,13.5,28.54,SW,225,3.5,3.5,69,0.00,CLR,,0.00,WeatherDisplay:10.37,2013-01-15 17:33:00,
2013-01-15 11:38:00,21.9,13.0,28.63,SW,225,4.5,4.5,68,0.00,CLR,,0.00,WeatherDisplay:10.37,2013-01-15 17:38:00,
2013-01-15 11:43:00,22.1,13.5,28.28,South,180,3.5,3.5,69,0.00,CLR,,0.00,WeatherDisplay:10.37,2013-01-15 17:43:00,
2013-01-15 11:48:00,22.1,13.1,27.76,South,180,5.8,5.8,68,0.00,CLR,,0.00,WeatherDisplay:10.37,2013-01-15 17:48:00,
2013-01-15 11:53:00,22.3,13.6,27.16,South,180,3.5,3.5,69,0.00,CLR,,0.00,WeatherDisplay:10.37,2013-01-15 17:53:00,
2013-01-15 11:58:00,22.6,14.0,26.65,South,180,3.5,3.5,69,0.00,CLR,,0.00,WeatherDisplay:10.37,2013-01-15 17:58:00,
2013-01-15 12:03:00,22.8,13.8,26.40,South,180,3.5,3.5,68,0.00,CLR,,0.00,WeatherDisplay:10.37,2013-01-15 18:03:00,
2013-01-15 12:08:00,23.0,13.7,26.35,South,180,3.5,3.5,67,0.00,CLR,,0.00,WeatherDisplay:10.37,2013-01-15 18:08:00,
2013-01-15 12:13:00,23.0,13.7,26.43,SW,225,2.3,2.3,67,0.00,CLR,,0.00,WeatherDisplay:10.37,2013-01-15 18:13:00,
2013-01-15 12:18:00,23.4,13.7,26.52,SW,225,3.5,3.5,66,0.00,CLR,,0.00,WeatherDisplay:10.37,2013-01-15 18:18:00,
2013-01-15 12:23:00,23.7,14.0,26.75,South,180,2.3,2.3,66,0.00,CLR,,0.00,WeatherDisplay:10.37,2013-01-15 18:23:00,
2013-01-15 12:28:00,24.1,14.0,27.00,South,180,3.5,3.5,65,0.00,CLR,,0.00,WeatherDisplay:10.37,2013-01-15 18:28:00,
2013-01-15 12:33:00,24.1,13.7,27.22,SW,225,3.5,3.5,64,0.00,CLR,,0.00,WeatherDisplay:10.37,2013-01-15 18:33:00,
2013-01-15 12:38:00,24.3,14.2,27.56,SW,225,5.8,5.8,65,0.00,CLR,,0.00,WeatherDisplay:10.37,2013-01-15 18:38:00,
2013-01-15 12:43:00,24.4,14.4,27.81,South,180,2.3,0.0,65,0.00,CLR,,0.00,WeatherDisplay:10.37,2013-01-15 18:43:00,
2013-01-15 12:48:00,24.6,13.8,28.03,South,180,4.6,4.6,63,0.00,CLR,,0.00,WeatherDisplay:10.37,2013-01-15 18:48:00,
2013-01-15 12:53:00,24.8,14.0,28.26,South,180,3.5,3.5,63,0.00,CLR,,0.00,WeatherDisplay:10.37,2013-01-15 18:53:00,
2013-01-15 12:58:00,25.0,14.2,28.57,South,180,3.5,3.5,63,0.00,CLR,,0.00,WeatherDisplay:10.37,2013-01-15 18:58:00,
2013-01-15 13:03:00,25.0,13.8,28.83,South,180,4.6,4.6,62,0.00,CLR,,0.00,WeatherDisplay:10.37,2013-01-15 19:03:00,
2013-01-15 13:08:00,25.3,14.1,29.10,SW,225,4.6,4.6,62,0.00,CLR,,0.00,WeatherDisplay:10.37,2013-01-15 19:08:00,
2013-01-15 13:13:00,25.7,14.5,29.16,SW,225,3.5,3.5,62,0.00,CLR,,0.00,WeatherDisplay:10.37,2013-01-15 19:13:00,
2013-01-15 13:18:00,25.9,13.9,28.92,South,180,6.9,6.9,60,0.00,CLR,,0.00,WeatherDisplay:10.37,2013-01-15 19:18:00,
2013-01-15 13:23:00,25.9,13.9,28.46,South,180,4.6,4.6,60,0.00,CLR,,0.00,WeatherDisplay:10.37,2013-01-15 19:23:00,
2013-01-15 13:28:00,26.1,14.1,27.87,SW,225,3.5,3.5,60,0.00,CLR,,0.00,WeatherDisplay:10.37,2013-01-15 19:28:00,
2013-01-15 13:33:00,26.2,13.8,27.38,South,180,3.5,3.5,59,0.00,CLR,,0.00,WeatherDisplay:10.37,2013-01-15 19:33:00,
2013-01-15 13:38:00,26.4,13.2,27.12,SW,225,3.5,3.5,57,0.00,CLR,,0.00,WeatherDisplay:10.37,2013-01-15 19:38:00,
2013-01-15 13:43:00,26.8,14.4,27.03,South,180,2.3,2.3,59,0.00,CLR,,0.00,WeatherDisplay:10.37,2013-01-15 19:43:00,
2013-01-15 13:48:00,27.5,14.6,27.13,SW,225,3.5,3.5,58,0.00,CLR,,0.00,WeatherDisplay:10.37,2013-01-15 19:48:00,
2013-01-15 13:53:00,29.5,14.9,27.32,South,180,3.5,3.5,54,0.00,CLR,,0.00,WeatherDisplay:10.37,2013-01-15 19:53:00,
2013-01-15 13:58:00,31.3,15.2,27.49,South,180,4.6,4.6,51,0.00,CLR,,0.00,WeatherDisplay:10.37,2013-01-15 19:58:00,
2013-01-15 14:03:00,32.4,15.3,27.65,West,270,8.1,8.1,49,0.00,CLR,,0.00,WeatherDisplay:10.37,2013-01-15 20:03:00,
2013-01-15 14:08:00,32.5,15.5,27.90,South,180,3.5,3.5,49,0.00,CLR,,0.00,WeatherDisplay:10.37,2013-01-15 20:08:00,
2013-01-15 14:13:00,33.3,14.7,28.13,South,180,3.5,3.5,46,0.00,CLR,,0.00,WeatherDisplay:10.37,2013-01-15 20:13:00,
2013-01-15 14:18:00,33.8,15.2,28.30,South,180,4.6,4.6,46,0.00,CLR,,0.00,WeatherDisplay:10.37,2013-01-15 20:18:00,
2013-01-15 14:23:00,34.2,15.5,28.58,West,270,3.5,3.5,46,0.00,CLR,,0.00,WeatherDisplay:10.37,2013-01-15 20:23:00,
2013-01-15 14:28:00,34.0,14.8,29.00,SW,225,4.6,4.6,45,0.00,CLR,,0.00,WeatherDisplay:10.37,2013-01-15 20:28:00,
2013-01-15 14:33:00,33.8,15.2,29.28,South,180,5.8,5.8,46,0.00,CLR,,0.00,WeatherDisplay:10.37,2013-01-15 20:33:00,
2013-01-15 14:38:00,34.0,15.3,29.55,SW,225,4.6,4.6,46,0.00,CLR,,0.00,WeatherDisplay:10.37,2013-01-15 20:38:00,
2013-01-15 14:43:00,33.8,15.2,29.84,South,180,5.8,5.8,46,0.00,CLR,,0.00,WeatherDisplay:10.37,2013-01-15 20:43:00,
2013-01-15 14:48:00,33.6,15.5,30.22,South,180,4.6,4.6,47,0.00,CLR,,0.00,WeatherDisplay:10.37,2013-01-15 20:48:00,
2013-01-15 14:53:00,33.4,15.8,30.47,South,180,5.8,5.8,48,0.00,CLR,,0.00,WeatherDisplay:10.37,2013-01-15 20:53:00,
2013-01-15 14:58:00,33.8,16.2,30.71,South,180,5.8,5.8,48,0.00,CLR,,0.00,WeatherDisplay:10.37,2013-01-15 20:58:00,
2013-01-15 15:03:00,34.3,16.7,31.03,South,180,3.5,3.5,48,0.00,CLR,,0.00,WeatherDisplay:10.37,2013-01-15 21:03:00,
2013-01-15 15:08:00,34.3,15.7,31.19,West,270,5.8,5.8,46,0.00,CLR,,0.00,WeatherDisplay:10.37,2013-01-15 21:08:00,
2013-01-15 15:13:00,34.0,15.8,31.01,South,180,4.6,4.6,47,0.00,CLR,,0.00,WeatherDisplay:10.37,2013-01-15 21:13:00,
2013-01-15 15:18:00,34.0,16.3,30.62,South,180,5.8,5.8,48,0.00,CLR,,0.00,WeatherDisplay:10.37,2013-01-15 21:18:00,
2013-01-15 15:23:00,34.0,16.3,30.00,SW,225,3.5,3.5,48,0.00,CLR,,0.00,WeatherDisplay:10.37,2013-01-15 21:23:00,
2013-01-15 15:28:00,34.5,16.8,29.25,South,180,3.5,3.5,48,0.00,CLR,,0.00,WeatherDisplay:10.37,2013-01-15 21:28:00,
2013-01-15 15:33:00,34.2,16.5,29.02,SW,225,4.6,4.6,48,0.00,CLR,,0.00,WeatherDisplay:10.37,2013-01-15 21:33:00,
2013-01-15 15:38:00,33.4,16.3,28.86,SW,225,8.1,8.1,49,0.00,CLR,,0.00,WeatherDisplay:10.37,2013-01-15 21:38:00,
2013-01-15 15:43:00,31.6,15.6,28.98,SW,225,5.8,5.8,51,0.00,CLR,,0.00,WeatherDisplay:10.37,2013-01-15 21:43:00,
2013-01-15 15:48:00,31.1,15.9,29.16,SE,135,3.5,3.5,53,0.00,CLR,,0.00,WeatherDisplay:10.37,2013-01-15 21:48:00,
2013-01-15 15:53:00,30.6,15.9,29.41,SE,135,3.5,3.5,54,0.00,CLR,,0.00,WeatherDisplay:10.37,2013-01-15 21:53:00,
2013-01-15 15:58:00,29.3,15.9,29.70,SW,225,5.8,5.8,57,0.00,CLR,,0.00,WeatherDisplay:10.37,2013-01-15 21:58:00,
2013-01-15 16:03:00,29.1,16.2,30.04,SW,225,5.8,5.8,58,0.00,CLR,,0.00,WeatherDisplay:10.37,2013-01-15 22:03:00,
2013-01-15 16:08:00,29.1,16.2,30.33,SW,225,3.5,3.5,58,0.00,CLR,,0.00,WeatherDisplay:10.37,2013-01-15 22:08:00,
2013-01-15 16:13:00,27.3,15.6,30.61,West,270,5.8,5.8,61,0.00,CLR,,0.00,WeatherDisplay:10.37,2013-01-15 22:13:00,
2013-01-15 16:18:00,26.6,15.7,30.92,SW,225,3.5,3.5,63,0.00,CLR,,0.00,WeatherDisplay:10.37,2013-01-15 22:18:00,
2013-01-15 16:23:00,26.2,16.1,31.34,South,180,3.5,3.5,65,0.00,CLR,,0.00,WeatherDisplay:10.37,2013-01-15 22:23:00,
2013-01-15 16:28:00,26.2,16.4,31.55,SW,225,2.3,2.3,66,0.00,CLR,,0.00,WeatherDisplay:10.37,2013-01-15 22:28:00,
2013-01-15 16:33:00,26.2,16.8,31.80,South,180,1.1,1.1,67,0.00,CLR,,0.00,WeatherDisplay:10.37,2013-01-15 22:33:00,
2013-01-15 16:38:00,26.2,16.8,31.80,South,180,1.1,1.1,67,0.00,CLR,,0.00,WeatherDisplay:10.37,2013-01-15 22:38:00,
2013-01-15 16:43:00,26.2,16.8,31.80,South,180,1.1,1.1,67,0.00,CLR,,0.00,WeatherDisplay:10.37,2013-01-15 22:43:00,
2013-01-15 16:48:00,26.2,16.8,31.80,South,180,1.1,1.1,67,0.00,CLR,,0.00,WeatherDisplay:10.37,2013-01-15 22:48:00,
2013-01-15 16:53:00,26.4,16.6,31.49,South,180,4.6,4.6,66,0.00,CLR,,0.00,WeatherDisplay:10.37,2013-01-15 22:53:00,
2013-01-15 16:58:00,26.2,16.8,30.87,South,180,3.5,3.5,67,0.00,CLR,,0.00,WeatherDisplay:10.37,2013-01-15 22:58:00,
2013-01-15 17:03:00,25.9,16.8,30.30,SW,225,3.5,3.5,68,0.00,CLR,,0.00,WeatherDisplay:10.37,2013-01-15 23:03:00,
2013-01-15 17:08:00,25.5,16.8,30.04,South,180,2.3,2.3,69,0.00,CLR,,0.00,WeatherDisplay:10.37,2013-01-15 23:08:00,
2013-01-15 17:13:00,25.3,16.9,29.85,SW,225,2.3,2.3,70,0.00,CLR,,0.00,WeatherDisplay:10.37,2013-01-15 23:13:00,
2013-01-15 17:18:00,25.3,16.9,29.85,SW,225,2.3,2.3,70,0.00,CLR,,0.00,WeatherDisplay:10.37,2013-01-15 23:18:00,
2013-01-15 17:23:00,25.5,17.1,29.96,SW,225,2.3,2.3,70,0.00,CLR,,0.00,WeatherDisplay:10.37,2013-01-15 23:23:00,
2013-01-15 17:28:00,25.7,17.3,29.99,South,180,3.5,3.5,70,0.00,CLR,,0.00,WeatherDisplay:10.37,2013-01-15 23:28:00,
2013-01-15 17:33:00,26.1,17.3,30.25,South,180,3.5,3.5,69,0.00,CLR,,0.00,WeatherDisplay:10.37,2013-01-15 23:33:00,
2013-01-15 17:38:00,26.1,17.3,30.48,South,180,3.5,3.5,69,0.00,CLR,,0.00,WeatherDisplay:10.37,2013-01-15 23:38:00,
2013-01-15 17:43:00,26.1,17.3,30.67,South,180,4.6,4.6,69,0.00,CLR,,0.00,WeatherDisplay:10.37,2013-01-15 23:43:00,
2013-01-15 17:48:00,26.1,17.3,30.81,South,180,3.5,3.5,69,0.00,CLR,,0.00,WeatherDisplay:10.37,2013-01-15 23:48:00,
2013-01-15 17:53:00,26.1,17.3,31.07,South,180,3.5,3.5,69,0.00,CLR,,0.00,WeatherDisplay:10.37,2013-01-15 23:53:00,
2013-01-15 17:58:00,25.5,17.1,31.26,South,180,2.3,2.3,70,0.00,CLR,,0.00,WeatherDisplay:10.37,2013-01-15 23:58:00,
2013-01-15 18:03:00,25.5,17.1,31.48,SW,225,3.5,3.5,70,0.00,CLR,,0.00,WeatherDisplay:10.37,2013-01-16 00:03:00,
2013-01-15 18:08:00,25.5,17.1,31.69,South,180,4.6,4.6,70,0.00,CLR,,0.00,WeatherDisplay:10.37,2013-01-16 00:08:00,
2013-01-15 18:13:00,25.5,17.1,31.88,South,180,1.1,1.1,70,0.00,CLR,,0.00,WeatherDisplay:10.37,2013-01-16 00:13:00,
2013-01-15 18:18:00,25.5,17.1,31.88,South,180,1.1,1.1,70,0.00,CLR,,0.00,WeatherDisplay:10.37,2013-01-16 00:18:00,
2013-01-15 18:23:00,25.5,17.1,31.88,South,180,1.1,1.1,70,0.00,CLR,,0.00,WeatherDisplay:10.37,2013-01-16 00:23:00,
2013-01-15 18:28:00,25.5,17.1,31.88,South,180,1.1,1.1,70,0.00,CLR,,0.00,WeatherDisplay:10.37,2013-01-16 00:28:00,
2013-01-15 18:33:00,25.5,17.1,31.88,South,180,1.1,1.1,70,0.00,CLR,,0.00,WeatherDisplay:10.37,2013-01-16 00:33:00,
2013-01-15 18:38:00,25.5,17.1,31.88,South,180,1.1,1.1,70,0.00,CLR,,0.00,WeatherDisplay:10.37,2013-01-16 00:38:00,
2013-01-15 18:43:00,25.5,17.1,31.88,South,180,1.1,1.1,70,0.00,CLR,,0.00,WeatherDisplay:10.37,2013-01-16 00:43:00,
2013-01-15 18:48:00,25.5,17.1,31.88,South,180,1.1,1.1,70,0.00,CLR,,0.00,WeatherDisplay:10.37,2013-01-16 00:48:00,
2013-01-15 18:53:00,25.5,17.1,31.88,South,180,1.1,1.1,70,0.00,CLR,,0.00,WeatherDisplay:10.37,2013-01-16 00:53:00,
2013-01-15 18:58:00,25.5,17.1,31.88,South,180,1.1,1.1,70,0.00,CLR,,0.00,WeatherDisplay:10.37,2013-01-16 00:58:00,
2013-01-15 19:03:00,25.5,17.1,31.88,South,180,1.1,1.1,70,0.00,CLR,,0.00,WeatherDisplay:10.37,2013-01-16 01:03:00,
2013-01-15 19:08:00,25.5,17.1,31.88,South,180,1.1,1.1,70,0.00,CLR,,0.00,WeatherDisplay:10.37,2013-01-16 01:08:00,
2013-01-15 19:13:00,25.5,17.1,31.88,South,180,1.1,1.1,70,0.00,CLR,,0.00,WeatherDisplay:10.37,2013-01-16 01:13:00,
2013-01-15 19:18:00,25.7,16.9,31.76,South,180,3.5,3.5,69,0.00,CLR,,0.00,WeatherDisplay:10.37,2013-01-16 01:18:00,
2013-01-15 19:23:00,25.7,16.9,31.56,South,180,3.5,3.5,69,0.00,CLR,,0.00,WeatherDisplay:10.37,2013-01-16 01:23:00,
2013-01-15 19:28:00,25.5,16.8,31.58,SW,225,2.3,2.3,69,0.00,CLR,,0.00,WeatherDisplay:10.37,2013-01-16 01:28:00,
2013-01-15 19:33:00,25.3,16.6,31.69,South,180,2.3,2.3,69,0.00,CLR,,0.00,WeatherDisplay:10.37,2013-01-16 01:33:00,
2013-01-15 19:38:00,25.3,16.6,31.86,SE,135,2.3,2.3,69,0.00,CLR,,0.00,WeatherDisplay:10.37,2013-01-16 01:38:00,
2013-01-15 19:43:00,25.3,16.6,31.86,SE,135,2.3,2.3,69,0.00,CLR,,0.00,WeatherDisplay:10.37,2013-01-16 01:43:00,
2013-01-15 19:48:00,25.3,16.6,31.86,SE,135,2.3,2.3,69,0.00,CLR,,0.00,WeatherDisplay:10.37,2013-01-16 01:48:00,
2013-01-15 19:53:00,25.3,16.6,31.86,SE,135,2.3,2.3,69,0.00,CLR,,0.00,WeatherDisplay:10.37,2013-01-16 01:53:00,
2013-01-15 19:58:00,25.3,16.6,31.86,SE,135,2.3,2.3,69,0.00,CLR,,0.00,WeatherDisplay:10.37,2013-01-16 01:58:00,
2013-01-15 20:03:00,25.3,16.6,31.86,SE,135,2.3,2.3,69,0.00,CLR,,0.00,WeatherDisplay:10.37,2013-01-16 02:03:00,
2013-01-15 20:08:00,25.3,16.6,31.86,SE,135,2.3,2.3,69,0.00,CLR,,0.00,WeatherDisplay:10.37,2013-01-16 02:08:00,
2013-01-15 20:13:00,25.3,16.6,31.86,SE,135,2.3,2.3,69,0.00,CLR,,0.00,WeatherDisplay:10.37,2013-01-16 02:13:00,
2013-01-15 20:18:00,25.3,16.6,31.86,SE,135,2.3,2.3,69,0.00,CLR,,0.00,WeatherDisplay:10.37,2013-01-16 02:18:00,
2013-01-15 20:23:00,25.3,16.6,31.86,SE,135,2.3,2.3,69,0.00,CLR,,0.00,WeatherDisplay:10.37,2013-01-16 02:23:00,
2013-01-15 20:28:00,25.3,16.6,31.86,SE,135,2.3,2.3,69,0.00,CLR,,0.00,WeatherDisplay:10.37,2013-01-16 02:28:00,
2013-01-15 20:33:00,25.3,16.6,31.86,SE,135,2.3,2.3,69,0.00,CLR,,0.00,WeatherDisplay:10.37,2013-01-16 02:33:00,
2013-01-15 20:38:00,40.8,18.3,29.53,SE,135,8.1,8.1,40,0.00,CLR,,0.00,WeatherDisplay:10.37,2013-01-16 02:38:00,
2013-01-15 20:43:00,40.8,18.3,29.53,SE,135,8.1,8.1,40,0.00,CLR,,0.00,WeatherDisplay:10.37,2013-01-16 02:43:00,
2013-01-15 20:48:00,40.8,18.3,29.53,SE,135,8.1,8.1,40,0.00,CLR,,0.00,WeatherDisplay:10.37,2013-01-16 02:48:00,
2013-01-15 20:53:00,40.8,18.3,29.53,SE,135,8.1,8.1,40,0.00,CLR,,0.00,WeatherDisplay:10.37,2013-01-16 02:53:00,
2013-01-15 20:58:00,40.8,18.3,29.53,SE,135,8.1,8.1,40,0.00,CLR,,0.00,WeatherDisplay:10.37,2013-01-16 02:58:00,
2013-01-15 21:03:00,40.8,18.3,29.53,SE,135,8.1,8.1,40,0.00,CLR,,0.00,WeatherDisplay:10.37,2013-01-16 03:03:00,
2013-01-15 21:08:00,40.8,18.3,29.53,SE,135,8.1,8.1,40,0.00,CLR,,0.00,WeatherDisplay:10.37,2013-01-16 03:08:00,
2013-01-15 21:13:00,40.8,18.3,29.53,SE,135,8.1,8.1,40,0.00,CLR,,0.00,WeatherDisplay:10.37,2013-01-16 03:13:00,
2013-01-15 21:18:00,40.8,18.3,29.53,SE,135,8.1,8.1,40,0.00,CLR,,0.00,WeatherDisplay:10.37,2013-01-16 03:18:00,
2013-01-15 21:23:00,40.8,18.3,29.53,SE,135,8.1,8.1,40,0.00,CLR,,0.00,WeatherDisplay:10.37,2013-01-16 03:23:00,
2013-01-15 21:28:00,40.8,18.3,29.53,SE,135,8.1,8.1,40,0.00,CLR,,0.00,WeatherDisplay:10.37,2013-01-16 03:28:00,
2013-01-15 21:33:00,40.8,18.3,29.53,SE,135,8.1,8.1,40,0.00,CLR,,0.00,WeatherDisplay:10.37,2013-01-16 03:33:00,
2013-01-15 21:38:00,40.8,18.3,29.53,SE,135,8.1,8.1,40,0.00,CLR,,0.00,WeatherDisplay:10.37,2013-01-16 03:38:00,
2013-01-15 21:43:00,40.8,18.3,29.53,SE,135,8.1,8.1,40,0.00,CLR,,0.00,WeatherDisplay:10.37,2013-01-16 03:43:00,
2013-01-15 21:48:00,40.8,18.3,29.53,SE,135,8.1,8.1,40,0.00,CLR,,0.00,WeatherDisplay:10.37,2013-01-16 03:48:00,
2013-01-15 21:53:00,40.8,18.3,29.53,SE,135,8.1,8.1,40,0.00,CLR,,0.00,WeatherDisplay:10.37,2013-01-16 03:53:00,
2013-01-15 21:58:00,40.8,18.3,29.53,SE,135,8.1,8.1,40,0.00,CLR,,0.00,WeatherDisplay:10.37,2013-01-16 03:58:00,
2013-01-15 22:03:00,40.8,18.3,29.53,SE,135,8.1,8.1,40,0.00,CLR,,0.00,WeatherDisplay:10.37,2013-01-16 04:03:00,
2013-01-15 22:08:00,40.8,18.3,29.53,SE,135,8.1,8.1,40,0.00,CLR,,0.00,WeatherDisplay:10.37,2013-01-16 04:08:00,
2013-01-15 22:13:00,40.8,18.3,29.53,SE,135,8.1,8.1,40,0.00,CLR,,0.00,WeatherDisplay:10.37,2013-01-16 04:13:00,
2013-01-15 22:18:00,40.8,18.3,29.53,SE,135,8.1,8.1,40,0.00,CLR,,0.00,WeatherDisplay:10.37,2013-01-16 04:18:00,
2013-01-15 22:23:00,40.8,18.3,29.53,SE,135,8.1,8.1,40,0.00,CLR,,0.00,WeatherDisplay:10.37,2013-01-16 04:23:00,
2013-01-15 22:28:00,40.8,18.3,29.53,SE,135,8.1,8.1,40,0.00,CLR,,0.00,WeatherDisplay:10.37,2013-01-16 04:28:00,
2013-01-15 22:33:00,40.8,18.3,29.53,SE,135,8.1,8.1,40,0.00,CLR,,0.00,WeatherDisplay:10.37,2013-01-16 04:33:00,
2013-01-15 22:38:00,40.8,18.3,29.53,SE,135,8.1,8.1,40,0.00,CLR,,0.00,WeatherDisplay:10.37,2013-01-16 04:38:00,
2013-01-15 22:43:00,40.8,18.3,29.53,SE,135,8.1,8.1,40,0.00,CLR,,0.00,WeatherDisplay:10.37,2013-01-16 04:43:00,
2013-01-15 22:48:00,40.8,18.3,29.53,SE,135,8.1,8.1,40,0.00,CLR,,0.00,WeatherDisplay:10.37,2013-01-16 04:48:00,
2013-01-15 22:53:00,40.8,18.3,29.53,SE,135,8.1,8.1,40,0.00,CLR,,0.00,WeatherDisplay:10.37,2013-01-16 04:53:00,
2013-01-15 22:58:00,40.8,18.3,29.53,SE,135,8.1,8.1,40,0.00,CLR,,0.00,WeatherDisplay:10.37,2013-01-16 04:58:00,
2013-01-15 23:02:00,40.8,18.3,29.53,SE,135,8.1,8.1,40,0.00,CLR,,0.00,WeatherDisplay:10.37,2013-01-16 05:02:00,
2013-01-15 23:03:00,40.8,18.3,29.53,SE,135,8.1,8.1,40,0.00,CLR,,0.00,WeatherDisplay:10.37,2013-01-16 05:03:00,
2013-01-15 23:08:00,40.8,18.3,29.53,SE,135,8.1,8.1,40,0.00,CLR,,0.00,WeatherDisplay:10.37,2013-01-16 05:08:00,
2013-01-15 23:13:00,40.8,18.3,29.53,SE,135,8.1,8.1,40,0.00,CLR,,0.00,WeatherDisplay:10.37,2013-01-16 05:13:00,
2013-01-15 23:18:00,40.8,18.3,29.53,SE,135,8.1,8.1,40,0.00,CLR,,0.00,WeatherDisplay:10.37,2013-01-16 05:18:00,
2013-01-15 23:23:00,40.8,18.3,29.53,SE,135,8.1,8.1,40,0.00,CLR,,0.00,WeatherDisplay:10.37,2013-01-16 05:23:00,
2013-01-15 23:28:00,40.8,18.3,29.53,SE,135,8.1,8.1,40,0.00,CLR,,0.00,WeatherDisplay:10.37,2013-01-16 05:28:00,
2013-01-15 23:33:00,40.8,18.3,29.53,SE,135,8.1,8.1,40,0.00,CLR,,0.00,WeatherDisplay:10.37,2013-01-16 05:33:00,
2013-01-15 23:38:00,40.8,18.3,29.53,SE,135,8.1,8.1,40,0.00,CLR,,0.00,WeatherDisplay:10.37,2013-01-16 05:38:00,
2013-01-15 23:43:00,40.8,18.3,29.53,SE,135,8.1,8.1,40,0.00,CLR,,0.00,WeatherDisplay:10.37,2013-01-16 05:43:00,
2013-01-15 23:48:00,40.8,18.3,29.53,SE,135,8.1,8.1,40,0.00,CLR,,0.00,WeatherDisplay:10.37,2013-01-16 05:48:00,
2013-01-15 23:53:00,40.8,18.3,29.53,SE,135,8.1,8.1,40,0.00,CLR,,0.00,WeatherDisplay:10.37,2013-01-16 05:53:00,
2013-01-15 23:58:00,40.8,18.3,29.53,SE,135,8.1,8.1,40,0.00,CLR,,0.00,WeatherDisplay:10.37,2013-01-16 05:58:00,